FW6626 Weather Reports


Display with metric or nautical units.
time (UTC)temp
F
wind
direction
speed
MPH
gust
MPH
rain 1hr
in
rain 24hr
in
rain mn
in
humidity
%
barometer
mb
20260508060105 61 197 1.0 4.0 0.00 0.00 0.00 83 1017.1
20260508054551 61 198 0.0 3.0 0.00 0.00 0.00 83 1017.1
20260508053055 61 0 1.0 5.0 0.00 0.00 0.00 84 1017.1
20260508051608 61 0 1.0 3.0 0.00 0.00 0.00 84 1017.2
20260508050051 61 218 0.0 3.0 0.00 0.00 0.00 83 1017.3
20260508044551 61 219 1.0 3.0 0.00 0.00 0.00 83 1017.1
20260508043055 61 217 2.0 4.0 0.00 0.00 0.00 84 1016.8
20260508041555 61 215 1.0 3.0 0.00 0.00 0.00 84 1016.6
20260508040056 61 217 2.0 4.0 0.00 0.00 0.00 83 1016.4
20260508034553 61 242 2.0 7.0 0.00 0.00 0.00 83 1016.2
20260508033059 61 248 2.0 5.0 0.00 0.00 0.00 83 1016.0
20260508031558 61 240 3.0 7.0 0.00 0.00 0.00 83 1015.7
20260508024617 61 245 1.0 4.0 0.00 0.00 0.00 83 1015.3
20260508023056 62 284 2.0 9.0 0.00 0.00 0.00 82 1015.2
20260508021604 62 192 2.0 5.0 0.00 0.00 0.00 82 1015.2
20260508020054 62 226 3.0 7.0 0.00 0.00 0.00 81 1015.1
20260508014554 63 243 2.0 6.0 0.00 0.00 0.00 80 1015.0
20260508013054 63 237 2.0 7.0 0.00 0.00 0.00 80 1015.0
20260508011554 63 294 3.0 8.0 0.00 0.00 0.00 80 1015.1
20260508010054 63 294 2.0 9.0 0.00 0.00 0.00 80 1015.1
20260508004555 65 288 2.0 8.0 0.00 0.00 0.00 78 1015.1
20260508003054 64 258 2.0 10.0 0.00 0.00 0.00 79 1015.1
20260508001552 64 246 4.0 9.0 0.00 0.00 0.00 79 1015.2
20260508000054 65 243 3.0 9.0 0.00 0.00 0.00 76 1015.3
20260507234553 64 294 2.0 11.0 0.00 0.00 0.00 78 1015.2
20260507233100 65 238 4.0 11.0 0.00 0.00 0.00 77 1015.1
20260507231559 65 260 4.0 15.0 0.00 0.00 0.00 77 1015.2
20260507230110 66 295 4.0 10.0 0.00 0.00 0.00 76 1015.1
20260507224555 66 290 4.0 10.0 0.00 0.00 0.00 76 1015.2
20260507223052 66 234 7.0 12.0 0.00 0.00 0.00 76 1015.3
20260507221554 66 261 4.0 14.0 0.00 0.00 0.00 76 1015.5
20260507220055 67 360 6.0 12.0 0.00 0.00 0.00 76 1015.6
20260507214555 68 254 6.0 11.0 0.00 0.00 0.00 74 1015.5
20260507213053 67 242 5.0 13.0 0.00 0.00 0.00 75 1015.7
20260507211551 68 262 7.0 16.0 0.00 0.00 0.00 73 1015.9
20260507210109 68 227 8.0 14.0 0.00 0.00 0.00 74 1015.9
20260507204554 68 258 6.0 15.0 0.00 0.00 0.00 73 1016.1
20260507203115 68 182 6.0 14.0 0.00 0.00 0.00 75 1016.1
20260507201553 68 271 6.0 16.0 0.00 0.00 0.00 73 1016.2
20260507200057 68 360 7.0 12.0 0.00 0.00 0.00 74 1016.1
20260507194601 68 206 6.0 14.0 0.00 0.00 0.00 73 1016.2
20260507193052 68 259 5.0 12.0 0.00 0.00 0.00 73 1016.3
20260507191550 68 209 5.0 13.0 0.00 0.00 0.00 72 1016.5
20260507184558 67 246 6.0 14.0 0.00 0.00 0.00 74 1016.8
20260507183058 67 360 6.0 12.0 0.00 0.00 0.00 74 1017.0
20260507181552 68 220 6.0 12.0 0.00 0.00 0.00 75 1017.0
20260507180053 68 252 6.0 11.0 0.00 0.00 0.00 74 1017.0
20260507174551 68 211 3.0 9.0 0.00 0.00 0.00 73 1017.2
20260507173128 68 360 4.0 9.0 0.00 0.00 0.00 74 1017.2
20260507171548 66 241 4.0 11.0 0.00 0.00 0.00 75 1017.1
20260507170050 67 263 3.0 11.0 0.00 0.00 0.00 75 1017.2
20260507164551 66 247 3.0 8.0 0.00 0.00 0.00 76 1017.2
20260507163050 66 241 4.0 8.0 0.00 0.00 0.00 78 1017.4
20260507161554 65 249 3.0 7.0 0.00 0.00 0.00 77 1017.2
20260507160104 65 221 2.0 6.0 0.00 0.00 0.00 77 1017.4
20260507154558 65 153 3.0 7.0 0.00 0.00 0.00 78 1017.4
20260507153059 62 221 2.0 7.0 0.00 0.00 0.00 80 1017.4
20260507151555 63 149 2.0 8.0 0.00 0.00 0.00 80 1017.4
20260507150057 62 152 1.0 6.0 0.00 0.00 0.00 81 1017.3
20260507144608 62 157 1.0 5.0 0.00 0.00 0.00 83 1017.2
20260507143101 60 148 3.0 6.0 0.00 0.00 0.00 86 1017.0
20260507141600 59 155 1.0 5.0 0.00 0.00 0.00 87 1016.9
20260507140049 58 153 2.0 6.0 0.00 0.00 0.00 87 1016.8
20260507134556 59 116 2.0 4.0 0.00 0.00 0.00 86 1016.7
20260507133137 58 116 2.0 6.0 0.00 0.00 0.00 89 1016.6
20260507131558 56 125 2.0 6.0 0.00 0.00 0.00 89 1016.5
20260507124556 56 121 2.0 6.0 0.00 0.00 0.00 88 1016.3
20260507123053 56 123 1.0 3.0 0.00 0.00 0.00 88 1016.3
20260507121553 56 123 1.0 4.0 0.00 0.00 0.00 88 1016.2
20260507120052 56 123 2.0 4.0 0.00 0.00 0.00 88 1016.3
20260507114609 57 139 2.0 4.0 0.00 0.00 0.00 88 1016.3
20260507113058 57 0 1.0 3.0 0.00 0.00 0.00 88 1016.4
20260507111555 57 140 1.0 2.0 0.00 0.00 0.00 88 1016.4
20260507110054 56 0 0.0 2.0 0.00 0.00 0.00 88 1016.5
20260507104552 57 0 0.0 2.0 0.00 0.00 0.00 88 1016.6
20260507103055 57 140 1.0 3.0 0.00 0.00 0.00 88 1016.7
20260507101550 57 140 2.0 4.0 0.00 0.00 0.00 88 1016.7
20260507100054 57 139 2.0 5.0 0.00 0.00 0.00 87 1016.8
20260507094600 57 141 2.0 5.0 0.00 0.00 0.00 87 1016.9
20260507093056 58 155 1.0 5.0 0.00 0.00 0.00 87 1017.0
20260507091557 58 155 2.0 6.0 0.00 0.00 0.00 87 1017.1
20260507090051 58 159 2.0 5.0 0.00 0.00 0.00 87 1017.2
20260507084557 58 159 1.0 4.0 0.00 0.00 0.00 87 1017.4
20260507083053 58 160 1.0 5.0 0.00 0.00 0.00 87 1017.5
20260507081555 58 161 2.0 5.0 0.00 0.00 0.00 87 1017.6
20260507080056 58 161 3.0 6.0 0.00 0.00 0.00 86 1017.7
20260507074557 58 163 2.0 5.0 0.00 0.00 0.00 86 1017.6
20260507073102 58 163 2.0 5.0 0.00 0.00 0.00 86 1017.8
20260507071553 58 167 3.0 6.0 0.00 0.00 0.00 85 1017.8
20260507070057 59 212 1.0 4.0 0.00 0.00 0.00 85 1017.9
20260507064557 59 217 2.0 5.0 0.00 0.00 0.00 85 1017.8
20260507063100 59 290 1.0 2.0 0.00 0.00 0.00 85 1017.9
20260507061553 59 0 0.0 2.0 0.00 0.00 0.00 85 1017.9